Location: Caseificio
(44.7500°N, 11.0500°E)
Time: 21:51:26
(UTC+00:00)

IRS-1D - Pass Details

Date: 26 May 2022
Orbit: 740 x 816 km, 98.7° (Epoch: 29 June)

Event Time Altitude Azimuth Distance (km) Brightness Sun altitude
Rises 01:55:31 0° 15° (NNE) 3,353 8.1 -14.4°
Reaches altitude 10° 01:57:53 10° 16° (NNE) 2,414 7.2 -14.2°
Maximum altitude 02:03:15 78° 103° (ESE) 830 3.7 -13.5°
Enters shadow 02:07:56 13° 190° (S) 2,145 5.3 -13.0°
